Weather History for KJBR - February, 2014

Change the Weather History Date:

Thursday, February 27, 2014

  Actual Average Record
Temperature  
Mean Temperature 35 °F 45 °F  
Max Temperature 47 °F 55 °F 80 °F (1971)
Min Temperature 23 °F 35 °F 8 °F (1934)
Degree Days  
Heating Degree Days 30 20  
Month to date heating degree days 697 639  
Since 1 July heating degree days 3240 2935  
Cooling Degree Days 0 0  
Month to date cooling degree days 0 0  
Year to date cooling degree days 0 0  
Moisture  
Dew Point 13 °F    
Average Humidity 44    
Maximum Humidity 63    
Minimum Humidity 24    
Precipitation  
Precipitation 0.00 in 0.13 in 1.69 in (1962)
Month to date precipitation 2.56 3.59  
Year to date precipitation 4.68 7.02  
Snow  
Snow 0.00 in 0.10 in 1.00 in (1925)
Month to date snowfall 1.0 1.3  
Since 1 July snowfall 2.0 4.1  
Snow Depth 0.00 in    
Sea Level Pressure  
Sea Level Pressure 30.08 in    
Wind  
Wind Speed 7 mph (ENE)    
Max Wind Speed 14 mph    
Max Gust Speed 20 mph    
Visibility 10 miles    
Events      
T = Trace of Precipitation, MM = Missing Value Source: NWS Daily Summary

Daily Weather History Graph

Daily Weather History Graph

Search for Another Location

Airport or City:

Trip Planner

Search our weather history database for the weather conditions in past years. The results will help you decide how hot, cold, wet, or windy it might be!

Date:

Astronomy

Feb. 27, 2014 Rise Set
Actual Time 6:35 AM CST 5:55 PM CST
Civil Twilight 6:09 AM CST 6:21 PM CST
Nautical Twilight 5:39 AM CST 6:51 PM CST
Astronomical Twilight 5:10 AM CST 7:20 PM CST
Moon 5:05 AM CST (2/27) 4:23 PM CST (2/27)
Length of Visible Light 12h 12m
Length of Day
11h 20m
Waning Crescent, 4% of the Moon is Illuminated
Feb 27
Waning Crescent
Mar 1
New
Mar 8
First Quarter
Mar 16
Full
Mar 23
Last Quarter

Hourly Weather History & Observations

Time (CST) Temp. Windchill Dew Point Humidity Pressure Visibility Wind Dir Wind Speed Gust Speed Precip Events Conditions
12:53 AM 24.1 °F 19.7 °F 9.0 °F 53% 30.09 in 10.0 mi West 3.5 mph - N/A   Clear
1:53 AM 25.0 °F 18.1 °F 10.0 °F 53% 30.09 in 10.0 mi West 5.8 mph - N/A   Clear
2:53 AM 24.1 °F 17.0 °F 9.0 °F 53% 30.08 in 10.0 mi West 5.8 mph - N/A   Clear
3:53 AM 25.0 °F 17.1 °F 8.1 °F 49% 30.07 in 10.0 mi West 6.9 mph - N/A   Clear
4:53 AM 25.0 °F 18.1 °F 7.0 °F 46% 30.07 in 10.0 mi West 5.8 mph - N/A   Clear
5:53 AM 26.1 °F 17.6 °F 6.1 °F 43% 30.08 in 10.0 mi West 8.1 mph - N/A   Clear
6:53 AM 26.1 °F 18.4 °F 7.0 °F 44% 30.09 in 10.0 mi West 6.9 mph - N/A   Clear
7:53 AM 28.9 °F 21.1 °F 8.1 °F 41% 30.12 in 10.0 mi WNW 8.1 mph - N/A   Clear
8:53 AM 32.0 °F 23.6 °F 10.9 °F 42% 30.14 in 10.0 mi NW 10.4 mph 16.1 mph N/A   Clear
9:53 AM 36.0 °F 29.6 °F 12.0 °F 37% 30.15 in 10.0 mi North 8.1 mph - N/A   Clear
10:53 AM 39.0 °F 36.8 °F 10.0 °F 30% 30.13 in 10.0 mi ENE 3.5 mph - N/A   Clear
11:53 AM 41.0 °F 35.8 °F 10.0 °F 28% 30.11 in 10.0 mi ESE 8.1 mph - N/A   Clear
12:53 PM 42.1 °F 38.4 °F 9.0 °F 26% 30.09 in 10.0 mi ESE 5.8 mph - N/A   Clear
1:53 PM 43.0 °F 39.5 °F 10.9 °F 27% 30.07 in 10.0 mi South 5.8 mph - N/A   Clear
2:53 PM 45.0 °F 42.6 °F 10.9 °F 25% 30.06 in 10.0 mi East 4.6 mph - N/A   Clear
3:53 PM 44.1 °F 40.8 °F 14.0 °F 30% 30.04 in 10.0 mi ESE 5.8 mph - N/A   Clear
4:53 PM 43.0 °F 38.2 °F 14.0 °F 31% 30.04 in 10.0 mi SE 8.1 mph - N/A   Clear
5:53 PM 41.0 °F 38.0 °F 16.0 °F 36% 30.04 in 10.0 mi SE 4.6 mph - N/A   Clear
6:53 PM 37.0 °F 32.4 °F 19.0 °F 48% 30.05 in 10.0 mi East 5.8 mph - N/A   Clear
7:53 PM 35.1 °F 30.1 °F 19.0 °F 52% 30.06 in 10.0 mi East 5.8 mph - N/A   Clear
8:53 PM 30.0 °F 24.1 °F 19.9 °F 66% 30.07 in 10.0 mi ENE 5.8 mph - N/A   Clear
9:53 PM 30.0 °F 24.1 °F 19.9 °F 66% 30.07 in 10.0 mi NE 5.8 mph - N/A   Clear
10:53 PM 30.9 °F 22.8 °F 19.9 °F 64% 30.06 in 10.0 mi ENE 9.2 mph - N/A   Clear
11:53 PM 30.0 °F 20.5 °F 21.0 °F 69% 30.05 in 10.0 mi ENE 11.5 mph - N/A   Clear